Theta_e
290 290 290 290 290 290 289 289 289 289 289 290 290 289 289 289 289 289 289 290 290 290 290 291 292 294 295 296 297 297 297 296 296 297 297 297 297 297 297 297 297 297 298 299 299 299 299 299 299 299 300 299 300 300 300 300 299 298 297 298 297 296 295 293 292 291 289 288 287 287 287 287 287 287 287 287 287 287 287 287 288 288 288 288 288
291 290 290 290 290 290 289 288 288 288 289 290 290 289 289 289 289 288 288 288 289 289 289 290 290 291 292 293 295 296 297 297 296 297 296 296 296 296 296 297 296 296 296 296 297 298 298 298 298 299 298 298 299 299 299 299 299 298 297 297 297 296 295 295 294 292 289 288 287 287 287 287 287 286 286 287 287 287 287 287 288 288 288 288 288
291 290 290 290 290 290 289 289 288 288 288 289 290 290 289 289 289 288 288 288 288 288 288 289 289 290 290 291 292 294 295 296 296 297 297 296 296 296 296 296 296 296 296 295 295 296 297 297 297 298 298 298 298 298 298 298 299 299 298 297 297 296 295 294 294 293 291 289 287 287 287 287 287 287 286 287 287 287 287 287 288 288 288 288 288
290 290 290 290 290 289 289 289 289 288 288 289 290 290 289 289 289 288 288 288 288 288 288 288 288 289 290 290 291 292 293 294 295 296 296 296 296 296 296 296 296 296 296 296 296 295 296 296 296 296 297 297 297 296 297 297 298 298 298 297 296 296 294 294 295 294 291 289 287 287 287 287 288 288 287 287 288 287 287 287 288 288 288 288 288
290 290 290 290 289 289 289 289 289 289 289 289 289 290 289 289 289 289 289 289 289 288 288 288 288 289 290 290 290 291 292 292 293 294 294 295 295 295 295 296 296 295 296 296 297 296 296 295 295 295 296 296 296 295 295 296 297 297 298 297 297 296 295 295 295 295 293 291 290 288 287 287 288 288 287 287 287 287 287 288 287 287 287 287 287
290 290 290 289 289 289 289 288 289 289 289 289 289 289 290 289 289 289 288 288 289 289 288 288 289 290 291 291 291 291 292 292 292 292 292 293 293 293 294 295 295 296 295 295 296 297 297 296 295 294 295 295 295 295 295 295 295 296 296 296 296 296 296 295 295 296 294 293 292 290 289 289 289 288 287 287 286 287 287 287 287 286 286 286 286
290 290 289 289 288 288 288 288 288 289 289 289 289 289 289 289 288 288 288 288 288 289 289 289 289 290 290 291 291 292 292 292 292 291 291 292 292 293 293 294 294 295 296 295 295 296 297 297 296 294 294 294 295 295 294 294 294 295 295 295 296 296 295 295 295 295 294 293 293 291 290 290 289 287 287 287 286 286 286 286 286 286 286 286 286
290 290 289 288 288 288 288 288 288 288 289 289 289 289 289 289 288 288 288 288 288 289 289 289 289 289 289 290 291 291 291 291 291 291 291 291 291 292 292 293 293 294 295 295 295 295 296 297 296 295 295 294 294 294 294 293 293 294 295 295 295 295 294 294 294 295 295 294 294 292 291 290 289 287 287 287 287 286 285 286 286 286 286 286 285
290 289 289 288 288 288 288 288 288 288 289 289 289 289 289 288 288 288 288 288 288 288 288 288 288 289 289 290 290 290 290 291 291 291 291 291 290 291 292 292 293 293 295 295 294 295 295 296 296 296 296 295 295 295 294 293 293 293 294 294 294 294 294 294 294 294 294 294 294 293 292 291 289 287 286 285 286 286 286 286 286 286 286 286 286
290 289 288 288 288 288 288 287 287 288 288 288 289 289 289 289 288 288 288 288 288 288 288 288 288 288 289 289 290 290 290 290 290 290 290 290 290 290 290 292 293 293 294 294 294 294 294 295 295 296 296 296 296 295 295 294 293 293 293 294 294 293 293 293 293 294 294 294 294 293 292 291 289 287 286 285 284 284 285 285 284 285 285 286 286
290 289 288 288 288 288 288 287 287 288 288 288 289 289 289 289 288 288 288 288 288 288 288 288 288 288 288 289 289 289 290 290 290 290 290 290 290 289 289 290 292 293 293 293 294 294 294 294 294 295 295 296 296 296 296 295 294 294 294 294 294 294 293 293 293 293 293 293 293 293 293 292 291 289 288 287 285 284 284 284 284 285 285 286 286
289 288 288 288 288 287 287 287 287 288 288 288 289 289 288 288 288 288 288 288 288 288 288 288 288 288 288 288 289 289 289 289 289 289 289 289 289 289 288 288 289 291 292 293 293 293 294 294 294 294 295 295 295 295 296 296 296 295 295 295 295 295 294 293 293 293 293 292 292 293 292 292 292 291 290 288 287 285 285 284 284 284 285 285 286
288 288 288 288 288 287 287 287 287 287 288 288 288 288 288 288 288 288 288 288 288 288 287 287 287 288 288 288 288 288 288 288 289 289 289 289 289 289 288 288 288 289 290 291 292 293 293 293 294 294 294 295 295 295 295 295 295 295 296 296 296 296 296 295 294 294 294 293 293 293 292 292 291 291 290 289 287 286 284 284 284 284 285 285 286
287 287 287 287 287 287 287 287 287 287 288 288 288 288 288 288 288 288 288 287 287 288 287 287 287 287 288 287 287 288 288 288 288 289 289 289 289 288 288 288 288 288 288 289 290 291 292 292 293 294 294 294 294 295 295 295 295 295 295 296 296 296 296 296 296 295 294 294 293 293 292 292 291 291 290 289 287 286 285 284 284 284 285 285 285
287 287 287 287 287 287 287 287 287 287 288 288 288 288 287 287 287 287 287 287 287 287 287 287 287 287 287 287 287 287 288 288 288 288 288 288 288 288 288 288 288 288 287 288 289 290 290 291 292 292 293 294 294 294 294 294 295 295 295 296 296 296 296 296 296 295 294 294 293 293 293 292 291 291 290 289 288 287 285 285 285 285 284 284 284
286 287 287 287 287 287 287 287 287 287 288 288 287 287 287 287 287 287 287 287 287 287 287 287 287 287 287 287 287 287 287 287 288 288 287 287 287 287 287 288 288 288 287 287 287 288 289 290 291 292 292 293 294 294 294 294 294 294 295 295 296 296 295 295 295 295 295 294 293 293 292 291 291 290 290 289 288 287 286 286 285 285 284 284 283
286 286 287 287 287 287 287 287 287 287 287 287 287 287 287 287 287 287 287 287 287 287 287 287 287 287 287 287 287 287 287 287 287 287 287 287 287 287 287 287 287 287 288 287 287 287 288 288 290 291 292 292 293 293 294 294 294 294 294 294 295 295 295 295 294 294 294 293 293 292 292 291 291 290 290 289 288 287 287 286 286 285 285 284 283
286 286 286 286 286 286 286 286 287 287 287 286 286 286 287 287 287 287 287 287 287 287 287 287 287 287 287 287 287 287 287 287 287 287 287 287 287 287 287 287 287 287 287 287 287 287 287 287 287 288 289 290 291 292 293 293 293 293 293 294 294 294 294 294 294 293 292 292 292 292 291 290 290 290 289 288 287 287 287 287 286 286 285 285 283
286 286 286 286 286 286 286 286 287 287 287 286 286 286 286 286 286 286 286 286 287 287 287 287 287 287 287 287 287 287 287 287 287 287 287 287 287 287 287 287 287 287 287 287 287 287 287 286 286 286 287 287 288 289 291 292 293 293 293 293 293 293 293 293 293 292 291 291 291 291 291 290 290 289 289 288 287 287 287 287 287 286 285 285 284
286 286 286 286 286 286 286 286 287 287 286 286 286 286 286 286 286 286 286 286 286 286 286 287 287 286 287 287 287 287 287 286 287 287 287 287 287 287 287 287 287 287 287 287 287 287 287 286 286 286 286 286 286 287 289 290 291 292 292 292 292 292 292 292 292 291 291 290 290 290 290 289 289 289 289 288 287 286 286 287 286 286 285 285 285
286 286 286 286 286 286 286 287 287 287 286 286 286 286 286 286 286 286 286 286 285 286 286 286 287 286 287 286 287 287 286 286 286 286 287 287 287 287 287 287 287 287 287 287 287 287 287 286 286 286 286 285 286 286 287 289 290 291 292 292 291 291 292 292 291 290 290 289 289 289 289 289 288 288 288 288 287 286 286 286 286 286 287 287 286
285 285 286 286 286 286 286 287 287 286 286 286 286 286 286 285 286 286 286 286 285 286 286 286 286 287 286 286 286 286 286 286 286 286 286 286 287 287 287 287 287 287 287 287 287 287 287 286 286 286 286 286 285 286 287 288 289 290 291 291 291 291 291 291 290 289 289 288 288 288 288 288 288 288 288 287 287 286 286 286 287 287 288 288 285
285 285 285 286 286 286 287 286 286 286 285 285 285 285 285 285 285 285 285 285 285 285 285 286 286 286 286 286 286 286 286 286 286 286 286 286 287 287 287 287 287 287 287 287 287 287 286 286 286 286 286 286 286 286 287 287 288 289 290 290 290 290 291 291 290 290 289 288 288 288 288 288 287 287 287 287 286 286 286 286 287 287 288 287 285
285 285 285 285 286 286 286 286 285 285 285 285 285 285 285 285 285 285 285 285 285 285 285 285 286 286 286 286 285 285 286 286 286 286 286 286 287 287 287 287 287 287 287 287 287 287 287 286 286 285 286 287 287 286 287 287 287 288 289 290 290 290 290 290 290 290 289 288 287 287 288 288 287 287 286 286 286 286 286 286 286 287 288 287 285
285 285 285 286 286 286 286 285 285 285 285 285 284 284 284 284 284 284 284 284 285 285 284 285 285 286 286 286 285 285 285 285 285 285 286 286 286 287 287 287 287 287 287 287 287 287 287 286 286 285 286 287 287 287 287 287 287 288 288 289 290 290 290 290 289 289 288 288 287 287 287 287 287 286 286 286 286 286 286 286 286 287 288 286 284
285 285 285 286 286 286 285 285 284 284 284 284 284 284 284 284 283 283 284 284 284 284 285 285 285 286 286 285 285 285 285 285 285 285 285 286 286 287 287 287 287 287 287 287 287 287 286 286 285 286 286 286 287 287 287 287 287 287 288 288 289 290 289 289 289 288 287 287 287 287 287 287 287 286 286 286 286 286 285 286 286 287 288 286 283
285 285 285 285 285 285 285 285 284 284 284 284 284 283 283 283 283 283 284 284 284 284 285 285 285 285 285 285 285 285 285 285 285 284 285 285 286 287 287 287 287 287 287 287 287 287 286 285 285 286 286 286 287 286 286 287 287 287 288 288 289 289 289 289 288 288 287 287 287 287 286 287 287 286 286 286 286 286 285 285 286 287 287 285 283
285 285 285 285 284 284 284 284 283 283 283 283 282 282 283 283 283 283 283 283 283 283 283 283 284 284 284 284 284 284 284 284 284 284 284 284 285 286 287 287 287 287 286 287 287 286 286 285 285 286 286 286 286 286 287 287 287 287 288 288 289 289 288 289 288 287 286 286 286 286 286 286 286 286 285 285 285 285 285 285 286 287 286 285 283
285 285 285 284 284 284 284 283 283 283 282 282 282 282 282 282 282 282 282 282 281 281 281 282 283 283 283 282 282 282 282 283 283 283 284 284 285 286 286 287 287 286 286 286 286 285 285 285 285 286 286 286 287 287 287 287 287 287 288 288 288 288 287 287 287 287 286 285 285 286 286 286 286 285 285 285 285 285 285 286 286 286 286 284 282
285 284 284 284 284 283 283 283 282 282 282 281 281 281 281 280 280 280 280 280 280 280 281 281 282 282 281 281 281 281 281 282 282 283 284 284 285 286 286 286 287 286 286 286 285 285 285 285 285 286 286 286 286 287 287 287 287 287 287 288 288 287 287 286 286 286 285 285 285 285 285 285 285 285 285 285 285 285 285 285 286 286 286 284 281
284 284 283 283 283 283 282 282 282 281 281 280 280 279 279 279 279 279 279 279 279 280 280 281 280 280 280 280 280 280 281 282 283 284 284 284 285 286 286 286 287 286 286 286 285 285 285 285 285 286 286 286 286 287 287 287 287 287 287 287 287 287 286 285 285 285 285 285 285 285 285 285 285 285 285 285 285 285 285 285 285 284 283 281 280
283 283 283 283 283 282 282 282 281 280 279 278 278 278 278 278 278 277 277 277 278 279 280 280 279 279 279 279 280 281 281 282 283 283 283 284 284 285 286 286 287 286 286 286 285 285 286 286 286 286 287 287 287 287 287 288 287 287 287 287 286 286 285 285 284 284 285 285 285 285 285 285 285 285 285 285 285 285 284 284 283 281 280 279 279
283 283 282 282 282 282 281 280 279 278 277 277 277 277 276 276 276 276 276 276 277 278 278 278 278 278 279 279 280 280 281 282 282 282 282 283 284 285 286 287 287 286 286 286 286 286 286 286 286 287 287 287 287 287 288 288 288 287 287 286 285 285 284 284 284 284 285 285 285 284 284 284 284 284 284 285 285 284 284 283 281 280 279 279 279
282 282 282 282 281 281 280 279 278 277 277 276 276 275 275 275 274 274 275 276 276 277 277 277 277 277 278 278 278 279 280 280 281 281 282 284 285 286 287 287 286 286 287 287 286 286 286 286 286 287 287 287 287 288 288 288 287 287 287 286 285 284 284 283 283 283 284 285 284 284 284 284 284 284 284 284 284 283 283 282 280 279 279 279 279
282 282 281 281 281 280 279 278 277 276 276 275 275 274 273 273 273 274 275 276 276 277 277 277 277 277 277 278 278 279 279 280 280 281 282 285 286 286 287 286 286 286 287 286 286 286 286 286 286 287 287 287 288 288 287 287 287 287 286 285 285 284 284 283 283 283 283 284 284 284 284 284 284 284 284 285 284 283 282 281 280 279 279 280 280
281 281 281 281 280 279 278 277 276 275 275 275 274 273 272 272 272 274 275 275 275 275 276 276 276 277 277 277 278 278 279 279 280 281 283 284 286 286 286 287 287 287 287 286 286 286 286 286 287 287 287 287 288 288 287 287 287 287 285 284 284 284 284 283 283 283 283 283 283 283 284 284 284 284 284 284 284 283 282 281 280 280 280 280 280
281 281 281 280 279 278 277 276 275 274 274 274 272 271 271 272 273 274 274 273 273 274 275 276 276 276 276 276 277 279 279 279 280 281 283 284 285 286 287 287 287 286 286 286 286 286 287 287 287 287 287 287 287 287 287 286 287 286 285 283 283 284 283 283 283 283 282 282 282 283 283 283 283 283 283 283 283 283 281 281 280 280 280 280 281
281 280 280 279 278 276 275 275 274 273 273 272 271 271 271 272 273 273 272 272 273 274 274 275 275 275 275 276 278 279 279 279 280 281 282 284 285 286 286 286 286 286 286 286 286 287 287 287 287 287 286 286 286 287 286 286 286 286 284 283 283 283 283 283 283 283 283 282 282 282 283 283 283 283 282 282 282 282 281 280 280 280 280 280 281
280 280 279 277 276 275 274 273 273 272 271 270 270 271 271 272 272 271 271 272 272 273 274 274 274 274 275 277 279 279 279 279 280 282 283 285 286 286 286 286 286 286 286 287 287 287 287 287 287 286 286 286 286 287 286 286 286 285 284 283 283 283 283 283 283 283 282 282 282 282 282 282 282 282 282 281 281 281 281 281 281 280 280 280 281
279 278 277 275 274 273 273 272 271 271 270 269 270 271 271 270 270 270 271 271 272 272 273 273 273 274 276 278 279 279 279 280 281 283 285 285 285 285 286 286 286 286 287 287 287 287 287 287 286 286 286 286 286 286 286 286 286 285 284 283 283 283 283 283 283 283 283 282 281 281 281 281 281 281 281 280 280 281 281 281 280 280 280 281 281
278 277 275 274 273 272 272 271 270 269 269 269 270 270 270 269 269 270 270 271 271 271 272 272 273 274 276 278 279 280 281 282 283 284 285 285 285 285 286 286 287 287 287 287 287 287 287 286 285 285 285 285 285 285 285 286 285 285 284 283 283 283 283 283 283 283 283 282 281 281 281 280 280 280 280 279 279 280 280 280 280 280 281 281 279
276 275 273 272 272 271 270 270 270 269 268 268 268 268 268 268 269 269 270 270 270 270 270 271 273 275 277 278 280 281 282 284 284 285 285 285 285 286 286 286 287 287 287 287 287 286 286 285 285 284 284 284 284 284 285 285 285 284 284 283 283 283 283 283 283 283 283 282 281 281 280 280 280 279 279 279 279 279 279 280 280 280 280 279 278
274 273 272 271 270 269 269 269 269 268 267 267 267 267 267 268 268 269 269 269 269 269 270 272 273 275 277 279 281 282 283 284 284 284 285 285 286 286 286 286 286 287 287 287 286 286 285 284 284 284 284 283 284 284 284 284 284 284 284 283 283 283 283 283 283 283 282 282 281 281 280 280 279 279 278 278 278 279 279 280 279 279 278 278 278
272 271 271 270 269 268 269 268 268 267 266 266 266 267 267 267 268 268 269 268 268 269 270 272 273 275 277 279 281 283 284 284 284 284 285 286 286 286 286 286 286 286 286 286 286 286 284 283 283 283 283 283 283 283 283 283 283 284 283 283 283 283 283 283 283 282 282 281 281 280 280 279 279 278 278 278 278 279 279 279 278 278 278 277 276
270 270 270 269 268 268 268 267 266 266 266 266 266 266 267 267 267 268 268 267 268 269 270 272 273 275 277 279 282 283 284 284 284 284 285 285 286 286 286 286 286 286 286 286 286 285 284 283 282 282 282 282 282 282 282 282 283 283 283 283 283 283 283 283 282 282 281 281 280 280 280 279 278 278 278 279 279 279 279 278 278 279 278 276 275
270 269 268 267 267 267 267 266 266 266 265 266 266 266 266 267 267 267 267 267 268 269 270 271 273 274 276 279 281 282 283 284 284 284 285 285 285 286 286 286 286 286 286 286 286 285 284 283 282 282 282 282 282 282 282 282 282 283 283 283 283 283 283 282 282 281 281 280 280 280 279 278 278 278 279 279 279 278 278 278 278 278 277 275 275
269 268 267 266 267 267 266 266 265 265 265 265 266 266 266 266 267 267 266 267 267 268 269 271 273 274 276 278 280 281 282 284 285 285 285 285 285 286 286 286 286 286 286 286 285 285 284 283 282 282 282 282 282 282 282 282 282 283 283 283 282 282 282 282 282 281 280 280 280 279 279 279 278 278 278 278 278 278 278 278 278 278 276 275 274
268 267 266 266 266 266 266 265 265 265 265 265 265 266 266 266 266 266 266 266 267 267 268 270 272 274 275 277 279 280 281 283 285 285 285 285 285 286 286 286 286 286 285 285 285 284 283 282 282 282 282 282 282 282 282 282 282 283 283 283 282 282 282 282 281 281 280 279 279 279 279 279 278 278 278 278 278 278 278 278 278 277 276 274 274
268 267 266 266 266 265 265 265 265 265 265 265 265 265 265 265 266 265 265 266 266 267 268 270 272 273 275 276 278 279 280 282 283 285 285 286 285 285 285 285 285 285 285 284 284 283 282 282 282 282 282 282 282 281 282 282 282 282 283 282 282 282 282 282 281 281 280 279 278 278 278 278 278 278 278 278 278 278 278 278 277 276 275 274 273
267 266 266 265 265 265 265 265 265 265 265 265 265 265 265 265 265 265 265 266 266 267 268 270 271 273 274 276 277 279 280 281 282 283 285 286 286 285 284 284 285 285 285 285 284 283 282 282 282 282 282 282 281 281 281 282 282 282 282 282 281 281 282 281 281 281 280 279 278 278 278 278 278 278 278 278 278 278 278 277 276 275 274 273 273
266 266 265 265 265 264 264 264 265 265 265 265 265 265 265 265 264 265 265 265 266 266 267 269 271 272 274 275 276 278 280 281 282 283 283 284 285 286 285 284 284 284 284 284 284 283 283 282 282 281 281 281 281 281 281 282 282 282 282 281 281 281 281 281 281 281 280 279 278 278 278 278 278 278 278 278 278 278 277 276 275 274 273 273 274
Wind_Speed
24 27 30 32 35 38 40 39 37 36 35 32 31 31 32 32 32 32 31 29 29 29 29 28 25 23 21 20 20 21 20 19 17 15 14 12 12 14 15 16 17 20 24 27 29 30 31 33 35 37 39 41 44 47 49 50 50 48 45 43 41 39 39 40 39 38 36 35 36 36 36 36 35 34 34 34 34 33 33 32 32 31 31 30 29
25 28 30 32 35 37 40 42 41 39 36 31 29 29 29 30 32 33 33 31 29 28 28 28 27 26 24 21 19 18 18 19 17 16 16 15 14 14 13 13 13 14 16 20 24 27 28 30 32 35 36 37 40 42 44 46 48 48 47 46 43 41 40 40 40 38 37 37 34 30 29 32 35 36 35 36 35 35 35 34 34 33 32 32 31
30 33 33 34 35 35 36 39 40 39 35 29 27 27 26 27 30 33 34 32 30 28 27 27 27 26 25 23 21 18 17 18 19 19 20 19 18 18 17 16 16 15 14 16 18 22 25 27 30 32 32 34 35 37 40 43 45 47 49 48 46 43 41 41 41 38 37 36 30 24 20 20 26 32 36 36 35 36 36 35 34 34 33 32 31
31 33 34 36 36 36 35 35 35 35 32 29 27 25 24 25 27 31 33 31 29 28 27 26 26 26 25 25 24 21 19 18 18 19 20 21 22 22 21 21 20 18 17 17 17 17 19 22 25 28 29 31 33 35 38 41 43 46 48 48 47 44 43 44 42 38 38 36 30 24 19 17 19 21 26 31 32 33 33 33 33 32 32 31 30
29 32 33 34 36 36 35 35 34 32 29 28 27 24 23 24 25 27 29 28 28 28 28 26 25 24 24 25 25 23 21 19 17 17 18 19 20 20 21 22 22 21 19 19 20 18 17 17 20 23 25 27 29 32 35 38 41 43 45 47 48 46 44 44 42 39 41 41 36 26 18 17 19 17 17 21 25 26 26 28 30 30 29 28 26
27 29 31 33 35 35 35 35 33 30 28 27 26 25 23 24 25 25 27 28 27 28 29 27 25 22 21 22 23 22 21 19 19 20 19 18 18 18 18 20 21 21 19 18 19 20 19 17 18 20 22 24 26 28 32 36 38 40 42 44 46 46 44 44 44 41 41 43 42 37 30 26 21 18 17 15 16 22 23 23 25 26 25 25 24
25 27 30 32 35 36 36 35 33 30 27 26 26 25 24 24 25 26 28 28 27 26 27 26 24 23 21 20 19 19 19 18 18 20 21 21 21 20 18 18 19 19 19 18 17 18 19 19 18 18 19 22 24 25 28 32 36 38 39 41 43 44 44 46 46 44 42 43 42 42 43 40 31 24 21 15 11 16 21 22 22 24 24 23 24
24 27 30 31 33 34 34 34 33 31 28 26 25 25 24 25 27 28 29 28 27 26 26 25 25 25 23 21 19 18 19 19 18 17 18 20 22 22 21 20 18 17 17 16 15 16 16 17 17 18 18 20 22 24 26 29 33 35 36 38 40 42 45 46 46 45 43 43 42 42 43 44 42 38 32 26 18 14 16 22 23 22 22 23 23
26 27 29 32 34 33 32 33 32 31 29 27 26 25 26 28 29 30 29 29 29 29 29 27 26 26 24 22 21 20 20 20 19 17 16 17 18 20 22 22 20 17 15 14 13 14 14 16 16 17 18 18 20 22 23 26 30 33 34 36 38 42 44 44 45 46 45 43 42 42 42 42 43 43 42 40 34 24 18 21 26 25 23 23 23
29 29 30 34 34 32 32 32 32 31 30 28 27 27 28 30 31 31 30 29 30 31 30 28 27 26 24 23 23 22 22 21 20 19 19 18 18 19 21 23 22 20 17 14 13 13 14 15 16 17 17 18 19 20 21 24 27 30 32 33 35 39 42 43 44 46 45 44 43 42 42 43 43 43 44 43 42 37 26 22 26 28 26 25 25
31 30 32 35 34 32 32 33 33 33 31 28 28 28 30 31 32 32 32 30 30 31 30 29 28 26 25 24 24 23 23 22 21 21 21 20 19 21 22 22 21 21 20 17 15 14 15 15 16 17 18 19 20 21 22 23 25 27 29 31 33 35 39 42 43 45 45 44 44 44 43 44 44 44 45 44 43 43 38 31 30 30 28 27 27
33 33 34 36 35 35 35 34 34 33 32 30 29 30 31 33 33 33 32 31 31 31 30 29 29 27 25 24 24 23 23 22 22 23 22 21 20 20 22 22 21 21 21 21 18 16 16 17 17 18 19 20 21 22 23 24 25 26 28 30 32 33 36 39 41 43 45 44 45 45 44 45 46 44 45 44 43 43 42 39 36 33 29 28 30
36 37 38 37 37 36 35 34 33 32 32 30 29 30 32 34 34 32 32 32 31 32 31 30 29 28 26 25 24 23 23 23 23 23 22 21 20 21 22 21 21 21 20 21 21 20 19 19 19 20 20 20 21 22 24 26 27 28 30 32 33 34 35 38 40 41 43 44 44 44 44 45 46 45 44 44 42 39 38 37 35 32 29 29 30
38 41 40 38 38 38 36 35 33 31 31 29 30 31 33 34 34 33 33 32 32 32 31 30 29 28 27 26 24 23 24 23 23 22 21 20 20 21 21 20 20 21 21 20 20 21 21 22 22 22 22 23 23 24 25 27 29 31 32 34 35 36 37 38 40 40 41 42 43 43 43 44 45 45 45 44 43 41 40 38 35 32 31 31 31
41 41 39 39 39 39 37 36 34 31 28 27 30 33 35 35 35 34 33 32 32 31 31 30 29 27 27 26 25 23 23 23 22 22 21 21 21 21 22 21 20 21 21 20 19 20 21 22 23 24 25 25 26 27 27 28 29 31 33 35 37 38 39 40 40 40 40 42 43 42 42 43 44 44 45 45 45 44 42 41 39 36 32 30 32
43 40 39 40 39 37 37 37 34 30 26 28 33 35 36 36 35 34 33 33 33 31 30 30 29 27 26 26 26 24 23 23 23 22 21 21 22 22 23 22 21 20 19 20 20 19 20 21 23 24 26 26 27 28 29 30 30 31 33 35 38 39 40 41 40 40 41 42 42 41 41 42 43 44 44 46 46 45 43 42 41 39 34 27 25
43 39 39 40 38 36 37 36 32 28 27 31 36 37 36 35 35 35 34 34 33 32 31 31 30 29 27 26 25 25 25 24 24 24 23 22 21 21 22 23 22 20 18 19 21 21 21 21 22 24 25 27 28 29 30 31 32 33 33 35 37 39 41 42 41 40 42 42 42 41 41 41 43 44 45 46 46 44 42 42 41 40 38 32 24
41 39 40 39 37 37 37 35 30 26 28 34 38 37 35 34 35 35 35 35 34 33 32 31 30 29 28 26 24 24 25 25 24 23 23 22 21 20 21 22 23 21 18 18 19 21 23 23 23 24 25 26 28 29 30 32 33 34 35 35 36 38 40 42 41 41 42 42 41 41 41 41 43 45 45 45 45 44 42 41 41 40 40 38 33
40 40 40 39 38 38 38 35 29 26 31 38 39 36 35 35 36 36 37 36 35 34 33 31 30 29 28 27 25 24 25 25 23 23 24 23 22 21 21 22 23 22 21 19 18 19 21 25 26 27 27 27 28 29 30 32 33 35 36 36 37 38 41 41 41 42 42 41 41 42 41 42 44 45 44 44 45 44 42 41 41 41 40 39 37
40 40 40 40 40 39 39 34 28 28 34 39 39 36 34 35 36 37 37 37 37 35 33 32 30 30 28 26 26 25 26 26 24 23 24 24 24 22 22 22 22 22 22 20 20 18 19 23 26 27 29 30 30 29 30 32 33 35 36 37 38 39 41 42 41 42 42 41 41 42 42 42 44 44 44 44 45 44 42 41 40 40 40 39 37
40 40 40 40 39 41 40 32 26 31 38 40 38 34 33 34 35 35 35 37 38 36 34 33 31 29 27 27 27 26 26 27 26 24 24 24 25 23 22 22 22 22 22 21 21 20 20 23 25 25 28 32 33 31 31 32 33 35 37 37 38 40 41 41 41 42 42 41 41 41 41 42 44 44 44 44 45 45 43 41 40 39 40 40 38
41 41 40 38 39 41 37 30 31 39 43 40 38 35 34 35 35 34 34 35 36 36 35 33 31 28 28 28 27 25 25 26 26 26 25 24 25 24 23 22 23 22 21 22 21 20 21 24 25 24 25 30 35 34 33 32 32 34 36 37 39 41 42 41 41 42 42 41 41 41 41 42 43 44 43 44 45 45 44 41 41 40 40 40 39
43 42 40 39 39 36 32 35 40 43 42 41 42 39 36 36 34 33 35 34 34 36 36 34 31 28 28 27 26 24 25 26 26 26 26 25 25 25 24 24 24 23 22 22 22 22 23 23 25 26 24 27 35 37 35 33 33 33 35 37 38 41 43 42 42 43 43 41 41 41 41 42 43 43 43 44 44 44 44 42 41 40 38 39 38
44 44 42 40 38 31 33 41 44 44 42 43 46 42 37 37 35 34 36 35 34 36 36 35 32 29 28 28 27 26 26 26 27 27 27 27 27 27 27 27 27 25 22 21 21 23 23 23 27 30 27 26 30 35 36 34 34 34 34 36 38 40 42 42 42 43 43 41 41 41 42 41 41 42 43 45 45 44 44 43 41 38 37 38 38
45 44 42 39 35 32 38 45 46 45 43 45 48 44 39 37 36 37 38 35 34 36 36 36 35 31 28 28 28 28 28 29 30 31 29 29 28 28 28 28 27 26 25 25 25 24 24 25 29 31 30 28 27 30 35 34 34 35 34 35 37 38 40 41 42 42 42 40 40 40 41 41 41 42 44 46 45 45 44 43 41 39 38 38 37
44 44 40 35 35 39 44 46 46 45 44 45 45 43 41 40 39 40 39 36 35 36 36 37 35 31 28 27 27 27 28 30 34 36 33 30 29 29 29 28 28 28 29 29 27 24 23 26 29 30 31 32 30 31 35 35 34 35 35 36 36 37 39 40 41 41 40 39 39 38 39 39 40 42 45 46 45 44 44 43 41 40 39 39 37
43 41 36 34 39 44 45 44 44 46 45 44 44 45 44 43 42 40 37 34 33 33 35 34 31 29 28 28 28 28 29 31 34 39 40 36 32 29 29 28 28 29 29 27 26 26 25 27 30 30 31 32 32 35 36 35 34 35 36 37 36 36 38 39 40 40 40 39 38 38 38 38 38 40 42 43 42 42 42 41 40 39 39 39 37
41 37 35 40 45 45 43 45 47 47 44 45 50 50 44 40 39 36 35 37 41 45 46 41 34 31 30 30 29 31 34 35 37 41 44 44 37 31 28 27 27 28 26 24 26 28 28 29 31 31 32 31 32 34 36 35 34 34 35 37 36 35 37 39 39 40 40 38 37 37 36 35 35 36 37 38 38 39 39 39 40 40 39 38 35
38 37 40 45 47 44 42 44 44 44 45 47 47 44 40 40 41 40 42 51 58 60 55 44 36 34 34 36 37 39 41 41 41 42 43 44 40 33 30 28 25 26 27 26 26 28 29 31 32 32 32 32 31 32 35 35 34 33 34 35 35 35 36 38 39 40 40 38 36 37 36 34 33 33 34 34 34 36 37 38 39 38 37 36 34
39 41 44 45 43 44 44 42 42 44 45 43 38 37 42 46 46 47 52 58 62 59 50 42 37 36 37 42 46 48 47 43 39 37 36 37 36 33 31 31 28 28 29 28 28 28 28 30 32 33 32 32 31 32 34 33 31 31 32 33 34 34 35 37 38 40 40 38 37 36 35 33 32 32 32 33 33 34 35 35 35 34 35 36 35
44 45 46 43 40 43 45 42 40 40 37 36 40 47 53 55 56 56 54 53 51 46 41 39 38 37 39 42 45 45 41 37 33 31 30 31 33 32 32 32 31 30 29 28 27 28 28 29 32 32 31 31 30 29 29 29 27 27 29 31 33 34 35 36 38 40 41 38 36 35 33 32 32 32 32 32 32 32 33 33 32 29 29 32 33
49 49 47 44 40 43 46 41 38 37 38 44 54 61 62 63 64 59 51 45 43 40 38 37 36 36 36 36 36 34 32 30 28 27 29 31 32 33 31 31 32 31 29 29 28 27 27 28 30 30 30 30 30 28 27 27 26 26 27 29 32 34 34 36 38 41 41 38 35 33 32 31 32 32 31 31 31 31 32 32 30 27 27 29 30
50 50 49 46 43 44 42 37 37 43 51 59 63 62 59 54 52 49 45 41 40 38 36 34 33 34 34 34 34 35 34 31 29 32 36 35 31 31 30 30 31 29 28 28 28 27 27 27 27 28 28 29 30 30 29 27 27 28 27 27 32 36 35 35 38 40 39 37 34 32 30 30 30 30 30 30 31 31 32 31 28 27 28 28 29
50 49 48 46 45 42 37 37 45 53 62 66 60 54 52 47 44 45 42 38 38 35 32 32 35 37 38 37 36 36 35 35 35 37 37 33 28 27 28 28 29 27 26 26 26 26 25 25 26 27 26 28 31 31 29 27 28 30 28 24 32 38 36 34 36 38 37 35 33 31 30 30 29 29 30 31 31 32 33 32 29 28 28 28 29
51 50 50 47 42 38 40 47 54 59 64 60 49 48 54 55 52 46 36 32 34 33 32 36 38 37 35 33 31 32 33 34 35 34 31 28 26 24 25 26 26 24 23 23 23 24 24 25 25 25 24 26 30 30 29 28 29 31 27 22 30 37 38 35 34 34 34 33 31 30 29 29 28 29 30 30 31 33 33 32 31 30 29 29 29
51 51 51 46 40 40 47 55 59 64 66 55 47 53 59 57 49 38 28 30 35 35 36 37 34 31 31 32 34 36 36 35 33 30 28 26 24 21 22 24 23 22 21 21 22 23 25 25 23 22 24 27 30 31 30 29 29 30 24 20 28 35 37 35 32 30 30 30 29 27 27 27 26 28 29 28 29 32 33 32 31 30 29 29 28
49 48 44 41 42 47 53 59 64 66 59 48 48 55 53 44 36 29 28 36 39 37 36 33 29 31 35 38 40 38 34 32 29 27 26 25 22 21 21 22 22 21 20 19 20 22 24 24 22 23 27 29 30 31 31 30 30 28 20 20 27 33 34 33 31 27 26 27 27 26 26 26 26 26 26 25 26 31 33 32 30 29 29 29 27
48 45 40 39 46 53 58 64 65 56 45 41 47 50 43 33 29 29 34 40 38 34 33 30 30 36 40 42 39 32 27 27 26 25 24 22 21 21 20 20 20 19 19 19 19 20 23 24 23 25 28 29 29 31 31 29 29 26 17 20 27 30 31 30 29 26 24 24 25 25 25 26 26 26 24 22 25 30 33 31 29 29 29 28 26
46 40 38 44 55 64 66 62 52 43 44 49 48 40 32 30 32 35 38 38 35 33 32 29 33 40 43 41 35 26 23 24 24 22 19 19 20 20 19 18 19 19 20 20 19 20 21 23 25 26 29 30 32 33 31 28 27 22 17 21 26 28 27 27 27 26 24 22 22 22 22 23 24 24 22 22 25 29 31 30 30 30 30 28 25
43 37 44 57 65 65 58 47 39 40 48 51 41 31 30 35 39 40 38 35 33 32 31 31 37 42 42 38 33 25 19 19 19 17 16 17 20 19 17 18 19 20 21 20 20 20 21 24 27 29 30 32 32 32 30 25 24 19 17 22 26 26 25 25 26 27 25 23 21 20 20 20 22 22 22 23 25 28 30 30 31 30 29 26 23
42 44 58 69 62 47 39 37 38 41 42 41 35 33 36 40 40 38 34 32 32 32 33 36 40 41 39 36 30 21 14 12 13 14 15 18 19 17 17 19 19 20 22 22 24 23 22 26 31 31 31 31 28 27 25 22 20 17 19 22 25 26 25 25 26 27 26 23 22 22 20 18 21 23 23 25 27 28 29 30 29 27 25 22 21
47 57 65 61 45 35 38 41 39 36 36 38 38 38 39 39 36 34 32 31 32 35 38 40 40 38 36 33 25 17 11 9 10 12 15 17 17 17 18 20 20 21 22 23 26 27 25 28 31 30 28 26 23 22 21 18 17 17 19 21 24 24 23 24 25 25 25 23 23 22 19 18 20 23 25 28 28 27 28 28 25 23 21 20 19
60 67 57 41 36 40 44 41 35 33 37 41 41 38 37 36 34 33 31 31 36 40 41 40 39 36 34 29 21 14 9 8 10 13 16 16 16 17 18 20 21 21 21 23 27 29 26 25 26 26 24 21 19 18 16 15 16 18 20 19 21 21 20 21 22 22 22 21 21 19 18 17 19 23 26 29 27 25 25 25 22 22 21 19 18
67 64 43 33 43 50 42 34 33 37 40 40 38 36 35 35 35 33 31 35 41 42 40 39 37 35 33 27 18 13 10 10 12 14 14 15 16 17 18 19 19 18 20 24 29 29 26 23 21 21 20 17 14 13 12 12 14 19 20 16 17 18 17 17 18 17 18 18 17 16 16 17 20 23 26 27 26 24 22 22 21 21 19 17 15
57 49 37 41 51 47 35 31 37 42 42 38 35 34 34 35 34 32 32 38 42 41 39 39 37 35 32 24 15 11 11 13 14 14 14 15 16 16 17 18 17 18 21 26 29 30 27 23 20 19 17 13 10 9 9 10 13 19 21 16 14 15 14 14 14 13 12 13 13 15 17 19 21 24 25 26 26 23 21 21 21 18 15 14 14
48 42 42 51 50 37 31 34 40 42 41 37 34 33 33 34 33 31 35 40 40 39 39 39 37 34 30 24 18 13 11 10 10 12 14 15 15 17 18 17 16 19 24 26 27 27 25 22 19 16 14 10 7 6 7 10 13 19 22 17 12 12 11 11 11 10 10 12 14 16 20 22 23 24 26 27 27 26 25 24 20 15 12 12 12
46 43 47 49 40 30 33 39 43 42 40 36 34 33 33 32 31 32 37 39 37 38 39 38 36 32 28 24 20 16 13 10 8 10 13 15 17 18 18 17 17 20 23 24 24 23 21 19 17 15 12 9 6 5 8 11 14 19 22 19 14 12 12 12 13 12 13 15 17 19 23 25 27 29 30 30 30 29 27 23 18 13 12 12 12
44 43 45 41 33 31 37 42 44 42 38 36 35 33 32 31 31 35 38 36 35 37 37 36 34 30 26 24 21 17 15 13 11 11 12 14 17 19 18 16 18 20 22 23 21 20 18 17 15 13 11 9 6 5 8 11 14 19 21 20 18 17 16 16 17 16 17 19 22 25 29 31 31 32 32 30 29 28 24 19 15 13 13 13 14
42 38 38 35 32 35 40 42 43 40 37 35 34 33 32 31 32 35 36 34 34 36 35 34 32 29 26 24 21 19 18 16 14 13 11 10 14 18 18 17 18 19 20 21 18 16 17 16 13 11 9 7 5 4 7 11 14 17 20 22 22 21 19 18 18 20 22 25 29 30 32 32 32 31 31 29 27 24 21 17 16 15 14 15 18
39 36 37 35 35 39 41 41 40 38 36 35 35 34 33 32 32 34 34 33 34 35 35 33 31 28 26 24 22 20 19 17 16 15 13 11 12 15 17 18 18 18 19 19 16 14 14 15 12 9 8 6 4 4 7 11 14 17 20 22 21 20 19 19 20 21 22 26 30 32 31 31 31 30 29 27 25 23 20 19 18 17 17 19 20
39 38 38 37 38 40 40 39 39 38 36 35 35 35 34 32 33 33 31 31 32 33 34 33 30 27 25 23 22 21 19 17 16 15 14 14 13 15 18 19 20 20 19 19 17 15 13 13 11 8 6 6 5 5 8 12 15 17 20 21 20 20 20 20 20 22 23 25 28 30 30 29 28 27 26 26 24 22 20 19 19 19 20 21 21
Wind_Direction
11 10 9 8 7 6 4 1 356 352 351 350 350 353 354 353 351 349 347 344 341 339 339 342 342 340 338 337 337 338 340 345 350 352 345 327 302 283 269 258 250 247 246 242 240 238 239 242 245 246 246 246 246 245 245 245 244 242 241 242 242 240 240 240 241 241 240 240 242 245 248 250 250 250 252 253 254 256 257 258 260 261 262 263 263
10 10 7 6 4 1 360 358 356 352 348 346 345 349 351 352 351 349 346 344 342 339 336 337 337 337 336 333 329 325 324 327 332 338 341 345 342 332 316 295 274 258 250 246 242 238 236 238 241 242 244 246 246 247 247 247 246 243 240 240 240 240 241 242 242 240 238 239 240 244 248 250 251 250 250 252 254 255 256 257 258 259 261 261 261
7 7 5 4 360 356 355 353 352 349 346 342 339 343 346 348 349 348 347 344 342 340 336 334 331 330 329 329 327 321 313 310 312 314 316 322 332 337 336 331 315 291 270 256 247 239 235 234 238 240 241 242 244 246 247 246 245 242 240 239 239 239 239 240 241 239 238 237 234 234 236 240 249 251 249 250 252 254 255 256 257 257 258 259 258
3 3 1 359 356 353 350 347 345 343 341 340 337 337 339 342 343 345 346 344 342 340 337 333 329 328 325 322 322 321 316 309 307 308 307 310 318 324 327 331 329 318 299 280 263 249 237 234 238 240 239 240 241 243 245 245 244 242 240 238 237 237 235 238 241 239 237 233 226 226 226 227 239 245 246 248 249 250 252 253 254 254 254 255 254
359 358 356 354 351 349 346 342 340 337 336 335 334 332 331 335 338 341 343 341 340 339 338 335 331 330 326 321 319 320 321 319 315 311 308 310 314 318 319 321 325 326 318 299 281 267 250 239 240 242 241 240 240 242 245 246 245 244 241 238 237 237 237 240 243 241 238 235 232 226 217 221 229 225 230 243 244 244 247 248 248 248 248 250 250
356 354 351 349 347 344 342 340 337 333 331 330 330 327 325 327 331 336 339 339 337 336 337 336 332 330 326 323 321 320 320 320 318 313 308 308 309 310 312 312 315 320 322 311 293 280 266 251 244 244 243 241 240 240 244 246 246 245 242 239 238 238 238 240 243 242 239 239 238 234 231 233 229 214 214 228 238 238 240 241 242 242 243 244 245
350 349 347 345 343 340 338 338 336 331 327 326 327 326 322 323 326 330 333 335 333 331 333 332 328 325 322 321 318 316 314 314 315 312 308 305 302 303 306 305 305 308 313 314 303 291 279 263 252 249 244 241 240 240 242 245 246 245 243 241 240 239 238 239 242 243 239 239 239 237 238 240 235 224 216 210 215 229 232 233 235 239 241 243 243
343 342 341 341 339 336 333 333 332 329 325 323 324 324 323 322 323 325 327 330 330 327 327 326 324 322 318 316 314 311 310 308 308 308 307 306 301 297 297 298 298 297 299 305 303 296 288 275 262 254 248 244 242 241 242 245 246 246 244 243 242 240 239 239 242 244 242 241 241 239 240 242 240 237 231 225 220 219 224 229 232 234 238 242 243
336 336 337 337 335 333 331 329 328 326 324 323 322 321 321 321 321 322 323 324 325 324 324 323 321 320 316 311 309 308 308 306 305 304 304 305 303 296 290 287 288 288 286 289 291 290 287 282 273 262 255 251 248 246 246 247 248 248 246 244 242 241 241 240 241 245 245 244 244 242 241 241 240 240 238 235 233 231 228 230 230 229 233 241 245
333 331 331 331 329 328 328 328 327 326 324 321 320 319 319 320 320 320 320 319 319 320 321 319 319 318 313 308 305 304 305 304 301 302 305 306 305 302 295 285 281 279 277 278 280 280 278 277 277 271 264 259 254 252 251 252 251 251 249 246 245 244 244 243 242 244 247 246 247 246 242 240 238 236 236 234 234 234 231 229 231 232 235 242 247
328 326 327 329 327 327 328 328 327 326 323 319 317 318 319 320 320 319 316 315 315 317 317 316 315 313 310 307 304 303 304 304 301 302 305 307 306 307 303 293 281 274 270 269 272 275 274 272 272 273 270 266 261 257 256 256 256 255 254 250 248 246 246 246 244 245 247 247 247 247 245 244 242 240 239 237 234 233 232 231 235 238 238 243 248
329 329 328 328 328 329 330 329 326 324 321 318 316 318 319 320 320 318 315 313 313 314 313 312 311 309 307 306 304 304 304 304 303 304 306 307 307 308 308 302 291 280 271 266 265 269 273 272 271 272 271 270 268 265 261 259 257 257 256 253 250 248 247 248 247 246 246 246 246 246 247 248 247 245 245 244 241 238 237 237 240 240 239 241 246
333 330 327 326 328 329 329 327 324 320 318 317 317 319 320 320 319 316 314 312 310 311 310 308 307 305 304 305 305 304 304 305 305 305 306 306 305 307 309 306 299 291 281 273 269 268 269 272 273 272 272 271 270 268 265 263 260 256 255 253 251 249 248 248 248 247 247 247 247 248 248 247 247 246 245 246 244 241 239 238 239 240 239 240 244
333 330 326 325 326 325 325 324 322 319 317 317 319 322 321 319 318 315 313 311 309 309 307 305 304 302 302 303 303 304 304 304 304 304 303 303 303 304 304 302 297 294 289 281 277 273 269 270 273 273 273 272 272 270 267 264 262 258 256 254 252 250 248 248 248 248 249 249 248 247 247 247 247 246 245 245 242 238 237 236 237 239 240 242 246
332 328 324 324 323 322 323 323 321 319 317 319 322 323 320 317 316 314 313 311 310 309 307 305 304 302 303 302 302 302 302 301 301 301 301 301 300 299 298 295 291 291 289 283 278 275 271 268 268 270 272 273 273 273 271 268 264 260 257 255 254 252 250 248 247 247 247 248 247 246 246 246 246 245 245 244 242 240 240 240 240 240 240 242 247
328 323 322 323 322 321 322 321 320 318 319 323 325 323 318 315 314 313 313 312 310 309 307 305 304 302 302 303 302 300 298 298 298 297 297 298 298 297 296 294 290 288 286 282 278 273 272 269 266 266 268 270 272 272 272 271 269 264 259 256 254 254 252 249 247 247 246 246 246 246 245 244 244 243 243 243 243 243 242 242 242 240 237 237 242
323 320 320 322 321 321 322 320 317 316 321 325 325 322 317 314 313 314 314 312 310 309 308 306 306 305 303 302 303 301 299 295 294 294 294 294 294 293 294 295 294 289 285 285 282 277 275 273 271 268 267 268 270 271 272 272 271 269 264 259 255 254 254 252 249 247 246 245 245 244 243 242 242 241 241 242 242 242 241 242 243 241 238 234 232
320 320 321 321 321 321 322 320 313 314 323 327 324 320 317 315 315 314 314 312 311 310 309 309 309 308 305 302 302 302 300 297 293 292 292 291 290 289 289 293 294 290 285 284 284 283 281 279 277 276 273 271 270 271 271 272 271 270 267 263 258 255 254 252 250 248 246 245 244 242 241 240 240 240 239 240 240 240 240 241 242 241 239 238 236
321 322 322 322 321 320 322 320 311 314 325 327 324 319 316 317 317 316 315 315 313 310 309 308 308 308 306 305 305 303 301 300 295 292 292 291 289 288 288 290 291 289 286 283 281 281 284 285 284 282 281 278 274 272 271 271 272 271 269 265 261 257 254 252 250 248 246 244 243 242 239 238 238 238 237 238 238 238 239 240 242 241 239 239 240
322 324 323 323 321 320 322 318 309 318 327 326 323 318 316 318 318 317 318 318 317 315 312 310 308 307 307 307 308 306 305 304 300 296 294 292 290 289 289 289 289 288 287 285 282 279 282 286 287 285 284 282 279 276 273 271 271 272 270 267 263 259 256 253 250 248 246 243 242 240 239 237 237 236 235 235 235 236 237 239 240 241 240 240 240
323 325 325 324 322 322 321 316 313 323 327 325 322 318 317 319 318 317 318 319 320 318 315 312 309 306 305 306 307 308 308 307 304 300 297 293 291 290 288 288 287 286 285 284 282 281 283 287 287 283 282 283 281 279 276 273 270 271 272 269 264 260 257 254 251 249 246 243 241 239 238 238 237 236 234 234 233 233 235 237 239 240 242 240 238
325 325 325 325 325 323 321 320 323 326 327 325 322 319 319 319 318 317 317 317 318 317 315 314 311 306 304 305 307 308 310 309 306 302 299 295 291 289 287 286 285 285 284 282 281 280 282 287 287 282 279 281 282 281 279 277 273 271 272 271 265 260 258 254 251 249 247 244 240 238 238 237 237 236 235 234 233 233 234 236 238 241 242 241 238
324 325 325 325 325 324 324 328 329 327 326 324 321 321 321 319 317 317 317 316 315 316 316 315 312 307 305 306 308 310 311 311 309 304 301 297 291 287 284 283 283 283 282 280 279 280 282 285 285 283 279 280 283 284 282 280 277 272 271 272 268 263 259 255 250 248 246 244 241 238 237 236 235 235 234 233 232 232 234 235 238 242 243 242 240
323 324 324 324 324 325 329 331 330 327 325 324 323 324 321 318 318 318 317 315 314 315 315 314 311 306 305 307 310 312 313 314 314 310 305 302 298 291 285 283 283 280 278 277 277 279 281 282 284 285 282 278 281 283 283 282 280 276 272 271 270 266 261 256 251 248 246 244 242 238 237 236 234 233 232 231 230 230 232 233 236 241 242 241 240
322 323 324 324 326 328 330 330 330 328 326 325 326 325 321 320 321 319 316 313 312 313 313 312 309 306 306 308 309 311 312 313 315 315 309 303 301 297 290 285 283 280 279 279 278 277 278 280 282 283 280 278 277 280 283 282 279 277 274 270 270 268 264 258 253 250 247 244 243 240 238 235 233 231 230 229 229 229 229 231 234 238 240 239 238
322 322 323 325 328 328 328 329 330 330 328 326 326 326 326 326 323 319 316 312 309 311 313 311 308 306 307 308 308 308 308 309 311 314 313 305 297 296 295 289 284 282 280 279 278 275 275 280 280 278 277 277 276 277 281 280 277 277 275 272 270 268 265 260 254 250 247 244 242 240 239 236 233 232 230 229 229 229 229 230 232 236 239 238 236
322 322 323 327 329 327 327 330 331 331 329 328 329 330 329 326 323 321 319 316 315 315 315 312 308 307 308 307 307 307 307 307 307 310 313 310 297 290 293 291 287 285 281 276 276 276 279 283 282 278 277 277 277 277 279 280 278 277 276 274 272 268 265 260 253 250 246 242 240 238 237 235 233 232 232 231 231 230 230 230 232 236 238 237 235
323 325 327 328 328 326 327 331 331 331 331 331 331 331 328 325 325 325 323 322 322 322 321 317 310 306 306 305 305 306 306 305 305 306 309 310 301 286 284 287 286 287 284 276 277 281 284 283 280 278 278 278 276 275 276 277 276 275 275 275 273 270 266 260 252 248 246 242 239 238 236 235 233 233 234 235 235 234 233 232 233 236 237 236 234
326 328 327 327 327 327 329 331 332 333 333 332 332 332 333 332 331 328 324 321 320 319 319 317 310 304 303 303 302 303 303 301 302 302 303 305 300 286 282 285 284 288 289 283 282 285 285 283 279 278 278 279 278 276 276 277 276 274 273 273 273 270 265 258 251 246 244 242 238 237 236 234 233 232 233 235 237 237 236 234 235 237 237 234 231
327 327 326 326 328 329 329 329 332 334 334 335 337 338 336 333 330 326 321 318 316 314 312 309 306 301 300 302 303 303 303 299 297 297 295 297 294 285 282 285 287 290 291 287 288 289 285 282 280 278 279 281 281 279 278 278 278 277 274 272 271 268 263 257 249 244 242 240 237 236 235 234 233 232 233 234 235 236 236 236 239 241 238 232 227
326 326 326 325 328 331 330 329 333 337 339 340 336 332 329 326 324 322 317 314 312 309 305 304 303 300 299 302 303 302 300 295 291 291 292 293 290 285 283 283 286 291 290 288 291 289 283 280 280 280 283 285 283 280 277 278 281 283 280 275 270 265 260 255 247 242 241 238 236 235 234 233 233 232 233 233 233 235 237 237 237 236 234 231 228
325 326 327 326 327 330 330 330 333 336 336 334 331 328 327 325 324 322 320 317 313 309 306 306 304 303 304 304 303 301 298 295 292 291 294 295 291 286 282 280 284 289 290 291 292 287 281 280 281 283 286 288 287 283 280 282 284 287 286 277 268 261 256 251 245 241 240 238 235 234 232 231 232 232 232 232 232 234 236 235 230 225 224 226 227
324 325 326 326 326 328 330 330 331 330 329 331 331 330 329 328 326 324 321 319 318 314 310 308 308 310 311 309 307 305 301 298 296 295 298 300 294 286 281 280 285 289 287 288 289 285 279 279 280 283 285 286 286 283 282 284 285 289 288 270 256 255 253 249 244 240 239 237 234 231 229 229 230 230 230 230 231 233 231 227 222 220 222 223 223
322 323 325 325 325 327 327 325 325 327 330 332 332 330 327 326 325 323 319 318 320 318 314 316 318 318 316 313 312 309 304 301 299 298 300 303 298 286 281 282 286 287 285 283 284 283 279 278 282 285 283 282 283 283 284 286 285 289 288 262 244 247 249 247 244 240 238 236 232 228 226 225 225 226 226 226 228 228 224 218 215 217 219 220 221
322 323 323 324 326 325 324 324 326 329 332 332 330 326 325 324 323 320 318 321 323 321 320 322 322 320 317 317 316 313 308 305 303 302 302 304 300 288 284 287 287 286 284 281 280 279 280 283 286 285 280 280 282 283 286 288 287 289 288 259 237 240 243 243 243 241 238 235 231 226 224 223 222 223 224 225 225 223 218 214 214 216 217 218 221
319 321 322 324 325 323 323 326 327 329 331 330 326 325 325 324 323 319 319 325 327 324 322 321 321 321 322 320 317 313 309 304 302 303 302 301 299 293 290 291 290 287 283 279 279 282 286 288 285 280 280 284 286 288 289 289 288 290 283 248 231 237 238 238 240 240 235 232 229 225 222 220 220 221 222 224 224 220 214 211 213 215 215 217 220
316 318 320 319 318 318 322 326 328 329 330 327 325 326 326 325 324 323 325 330 329 325 322 321 320 322 322 320 319 316 311 304 298 299 300 299 301 300 295 292 291 289 284 280 281 287 291 291 284 279 285 289 290 291 292 289 289 289 273 234 229 235 234 234 237 235 231 228 226 223 221 217 216 218 220 221 221 217 212 210 212 213 214 217 220
316 317 316 317 319 322 326 328 328 329 329 326 325 326 327 328 328 328 329 330 328 325 323 321 319 320 321 324 323 320 313 305 296 295 299 301 302 301 297 295 294 291 289 288 289 290 291 292 290 287 288 289 289 290 290 288 288 284 257 223 227 232 230 230 231 229 226 225 223 221 219 216 214 215 216 216 218 215 210 208 210 212 215 218 219
318 316 317 322 326 328 329 329 328 328 328 329 328 325 326 330 329 328 328 327 326 327 325 321 318 320 323 328 329 326 316 305 297 299 305 305 303 300 297 298 299 298 297 295 293 291 289 292 295 294 290 287 287 286 284 284 285 275 236 217 226 229 226 226 225 222 220 220 220 218 215 213 212 212 213 213 214 212 208 207 210 212 214 217 218
320 319 322 327 330 330 330 329 328 327 329 332 331 327 326 328 328 328 327 326 329 330 327 321 320 322 326 331 334 331 319 305 302 311 315 308 301 297 298 303 307 307 304 301 300 296 291 292 296 295 291 288 285 282 280 281 280 260 217 213 225 225 221 222 220 219 218 216 213 210 209 208 206 207 207 203 205 208 205 206 209 210 212 216 216
321 323 327 329 331 332 331 328 326 327 331 333 332 326 324 324 325 326 327 327 329 328 326 324 324 326 330 335 336 335 324 310 317 326 316 300 292 295 306 314 316 314 310 306 305 300 294 295 299 299 295 292 288 282 278 276 269 240 206 210 224 222 220 220 217 217 219 216 212 208 206 203 201 201 197 191 195 203 202 203 208 209 211 213 210
324 328 330 331 331 331 330 328 326 327 331 332 329 324 322 323 325 326 327 327 328 328 327 328 328 331 335 337 340 343 333 321 332 327 305 291 294 308 317 319 318 314 308 305 305 303 300 299 301 301 298 295 290 281 273 267 252 220 199 209 222 222 221 220 216 216 218 216 215 212 207 202 199 197 190 184 190 198 198 198 202 202 202 203 202
327 331 331 331 330 330 330 329 328 329 331 330 327 324 323 325 326 326 327 328 329 329 330 330 332 336 340 342 348 355 341 321 326 317 298 294 309 319 318 317 317 312 307 308 310 309 305 303 303 304 301 295 286 275 263 251 233 206 192 206 221 221 221 222 219 219 218 216 215 211 205 203 199 192 185 180 183 192 193 189 190 193 195 197 198
330 332 329 326 330 331 329 330 332 332 332 331 328 325 323 324 324 326 329 330 329 329 331 333 335 339 344 347 355 8 3 347 336 322 306 308 319 321 318 318 317 312 312 316 316 313 311 310 308 307 304 295 283 268 248 233 218 197 186 199 220 219 217 220 220 221 220 216 209 200 195 194 189 182 177 174 178 186 185 179 184 191 191 189 190
331 331 327 328 332 331 329 331 335 335 333 331 328 326 324 324 325 328 331 330 329 330 333 336 337 340 346 350 353 5 11 359 341 325 315 314 317 319 319 317 315 316 321 322 319 318 319 320 315 312 308 296 281 265 239 215 201 189 181 187 212 217 210 212 214 212 209 203 196 189 183 180 178 174 169 168 176 182 180 179 187 190 181 178 185
329 328 330 334 334 331 329 333 336 336 334 331 330 328 326 325 326 329 330 330 331 333 334 336 336 339 347 353 352 353 359 351 334 324 320 318 318 319 318 314 316 325 327 325 322 322 325 325 320 316 310 298 281 259 223 196 187 186 180 178 197 208 201 201 203 194 183 182 180 177 172 167 167 168 166 169 175 178 181 187 191 186 176 180 189
328 326 332 336 334 330 332 335 336 335 334 332 331 330 329 328 328 330 330 330 333 335 334 334 336 339 346 353 355 355 352 342 331 327 325 324 328 327 320 315 322 329 327 326 327 327 327 326 323 319 310 294 278 243 205 189 183 185 181 174 180 192 187 185 185 177 171 172 167 164 163 163 165 168 170 173 176 179 184 190 189 184 186 190 189
326 326 333 335 332 331 334 334 334 334 333 333 333 333 333 331 329 330 331 331 334 336 334 333 335 339 344 348 352 355 354 347 337 329 328 335 340 336 327 322 326 328 327 330 332 328 323 323 323 321 310 290 273 234 200 190 186 187 183 174 176 185 183 178 176 172 168 166 162 161 165 168 170 172 173 176 180 183 187 190 189 192 198 194 185
325 327 333 334 332 333 333 332 333 333 332 333 334 333 333 332 330 331 333 333 334 335 334 334 337 339 341 344 348 352 352 347 339 332 332 341 345 341 336 331 329 329 331 335 334 324 318 318 320 321 315 297 277 236 199 189 187 189 186 178 179 185 182 175 175 175 171 167 165 166 169 172 172 173 174 177 181 184 186 190 195 199 197 189 181
326 327 331 332 332 333 332 332 332 333 332 333 333 333 333 332 332 334 336 335 336 337 336 336 338 338 338 340 344 347 345 341 337 334 333 337 342 342 341 339 335 335 338 339 335 322 311 309 311 316 315 296 259 214 192 186 186 188 187 182 182 185 183 177 177 177 174 170 168 168 171 173 174 174 176 179 182 186 191 196 198 195 188 182 177
328 328 330 331 332 332 333 333 333 333 333 332 333 334 335 334 335 339 339 338 340 340 338 336 337 336 335 337 340 341 339 335 333 331 332 339 345 342 342 344 344 342 342 343 341 332 316 302 296 299 304 291 260 220 192 185 183 185 186 183 181 183 186 184 180 178 176 173 172 172 172 174 176 178 180 183 186 191 196 199 195 187 180 176 173